Regional Weather Roundup
Issued by NWS

Home | Current Version | Previous Version | Graphics & Text | Print | Product List | Glossary On
Versions: 1 2 3 4 5 6 7 8 9 10 11 12 13 14 15 16 17 18 19 20 21 22 23 24 25 26 27 28 29 30 31 32 33 34 35 36 37 38 39 40 41 42 43 44 45 46 47 48 49 50
440
ASUS45 KBOU 261010
RWRCO

WEATHER ROUNDUP FOR COLORADO
NATIONAL WEATHER SERVICE DENVER/BOULDER CO
400 AM MDT MON SEP 26 2016

NOTE: "FAIR" INDICATES FEW OR NO CLOUDS BELOW 12000 FEET WITH NO
SIGNIFICANT WEATHER AND/OR OBSTRUCTIONS TO VISIBILITY.

COZ001>005-013-030-031-261100-
...NORTHWEST COLORADO...

CITY           SKY/WX    TMP DP  RH WIND       PRES   REMARKS
CRAIG          FAIR      33  30  88 CALM      30.50F
HAYDEN         FAIR      37  28  70 E12       30.50S
MEEKER         FAIR      35  33  92 E3        30.50F
MOUNT WERNER   NOT AVBL
STEAMBOAT SPGS FAIR      33  32  94 CALM      30.52S
WALDEN           N/A     27  21  80 SE7       30.56S WCI  19
$$

COZ006>008-011-261100-
...WEST CENTRAL VALLEYS...

CITY           SKY/WX    TMP DP  RH WIND       PRES   REMARKS
GRAND JUNCTION FAIR      48  38  68 SE13      30.40S
MONTROSE       FAIR      44  35  70 SE10      30.47S
EAGLE          FAIR      34  30  86 E6        30.54F WCI  29
RIFLE          FAIR      43  38  82 E5        30.46S
DELTA          FAIR      45  38  76 NE6       30.45R
NUCLA          FAIR      45  34  65 CALM      30.47S
$$

COZ017>023-064>068-261100-
...SOUTHWEST COLORADO...

CITY           SKY/WX    TMP DP  RH WIND       PRES   REMARKS
DURANGO        FAIR      41  34  76 N5        30.48R
CORTEZ         FAIR      38  34  85 CALM      30.43S
PAGOSA SPRINGS FAIR      38  33  81 CALM      30.53S
TELLURIDE      FAIR      39  35  83 CALM      30.58S
WOLF CREEK PAS FAIR      32  28  86 MISG      30.71F
$$

COZ009-010-012-014-032>034-037-058>063-261100-
...CENTRAL COLORADO...

CITY           SKY/WX    TMP DP  RH WIND       PRES   REMARKS
ASPEN          FAIR      34  30  85 CALM      30.52F
BUENA VISTA    FAIR      34  25  68 CALM      30.56S
COPPER MTN     FAIR      41  16  36 CALM      30.69S
BERTHOUD PASS  FAIR      32  18  55 CALM      30.71R
COTTONWOOD PAS FAIR      43  28  56 CALM      30.61F
GUNNISON       FAIR      33  29  85 CALM      30.55S
KREMMLING      FAIR      28  23  80 CALM      30.57S
LEADVILLE      FAIR      29  22  75 CALM      30.60F
MONARCH PASS   FAIR      36  27  69 SW5       30.79S
SALIDA         FAIR      38  29  69 W3        30.62F
SUNLIGHT       FAIR      37  32  81 E3        30.67S
WILKERSON PASS FAIR      36  27  69 W7        30.68F
$$

COZ069>075-261100-
...SAN LUIS VALLEY/SANGRE DE CRISTO MOUNTAINS...

CITY           SKY/WX    TMP DP  RH WIND       PRES   REMARKS
ALAMOSA        FAIR      36  29  75 E5        30.51S
LA VETA PASS   FAIR      37  28  70 MISG      30.61S
SAGUACHE       NOT AVBL
$$

COZ035-036-038>040-261100-
...NORTHERN COLORADO FRONT RANGE...

CITY           SKY/WX    TMP DP  RH WIND       PRES   REMARKS
DENVER INTL AP FAIR      46  29  51 SW10      30.41F
DMNS CITY PARK NOT AVBL
AURORA         CLEAR     43  31  61 S5        30.43F
FRONT RANGE AP FAIR      50  32  50 SW12      30.42F
ERIE MUNI ARPT FAIR      38  33  81 SW3       30.41S
BOULDER MUN AP FAIR      46  34  61 CALM      30.41S
CENTENNIAL     FAIR      45  30  55 S3        30.43F
BROOMFIELD     FAIR      46  32  57 CALM      30.43S
FORT COLLINS   FAIR      43  36  75 N6        30.41F
LONGMONT       FAIR      41  34  74 W3        30.42F
$$

COZ041-046-047-076>085-087-088-261100-
...PIKES PEAK/PALMER DIVIDE AND SOUTHERN FOOTHILLS...

CITY           SKY/WX    TMP DP  RH WIND       PRES   REMARKS
COLO. SPRINGS  FAIR      41  28  60 NW3       30.48F
A. F. ACADEMY  FAIR      33  28  80 N8        30.47F WCI  26
SCHRIEVER AFB  NOT AVBL
ELLICOTT       NOT AVBL
FALCON         FAIR      39  28  63 W6        30.50S
FORT CARSON    FAIR      47  29  49 W5        30.46F
LIMON          FAIR      30  23  75 N5        30.44F WCI  25
MONUMENT HILL  FAIR      41  28  60 SW10      30.48F
TRINIDAD       FAIR      46  32  58 W13       30.46F
$$

COZ042>045-048>051-090-091-261100-
...NORTHEAST COLORADO...

CITY           SKY/WX    TMP DP  RH WIND       PRES   REMARKS
GREELEY ARPT   FAIR      39  34  81 NW3       30.41S
AKRON          FAIR      44  31  60 SW10      30.39F
BURLINGTON     FAIR      41  34  76 W6        30.39F
WRAY           NOT AVBL
STERLING       FAIR      36  32  87 S3        30.38F
HOLYOKE        FAIR      37  34  87 W5        30.38F
FORT MORGAN    FAIR      42  28  57 SW6       30.40F
$$

COZ086-089-092>099-261100-
...SOUTHEAST COLORADO...

CITY           SKY/WX    TMP DP  RH WIND       PRES   REMARKS
PUEBLO         FAIR      44  28  53 NW5       30.43F
LA JUNTA       FAIR      45  32  60 SW5       30.42F HAZE
LAMAR          FAIR      35  27  72 SW5       30.40S WCI  31
SPRINGFIELD    NOT AVBL
$$




USA.gov is the U.S. government's official web portal to all federal, state and local government web resources and services.